Location: Vigevano
(45.3170°N, 8.8500°E)
Time: 18:19:26
(UTC+02:00)

ISS - Visible Passes

Search period start: 24 September 2018 00:00
Search period end: 04 October 2018 00:00
Orbit: 403 x 409 km, 51.6° (Epoch: 25 September)

Date Brightness Start Highest point End Pass type
(mag) Time Alt. Az. Time Alt. Az. Time Alt. Az.
24 Sep -3.6 20:17:31 10° SW 20:20:43 51° SE 20:22:57 18° ENE visible
24 Sep -1.2 21:54:14 10° W 21:55:39 21° WNW 21:55:39 21° WNW visible
25 Sep -3.1 21:02:09 10° W 21:05:22 50° NNW 21:06:05 41° NNE visible
26 Sep -3.7 20:10:09 10° WSW 20:13:26 77° NNW 20:16:23 13° ENE visible
26 Sep -1.3 21:47:23 10° WNW 21:49:04 22° NW 21:49:04 22° NW visible
27 Sep -2.4 20:55:13 10° W 20:58:15 33° NNW 20:59:17 27° NNE visible
28 Sep -2.8 20:03:03 10° W 20:06:14 43° NNW 20:09:24 10° NE visible
28 Sep -1.3 21:40:25 10° WNW 21:42:05 21° NW 21:42:05 21° NW visible
29 Sep -2.1 20:48:17 10° WNW 20:51:10 27° N 20:52:09 23° NNE visible
30 Sep -2.3 19:56:04 10° WNW 19:59:04 31° NNW 20:02:03 10° NE visible
30 Sep -1.4 21:33:15 10° NW 21:34:52 21° NNW 21:34:52 21° NNW visible
01 Oct -2.2 20:41:12 10° WNW 20:44:03 26° N 20:44:52 23° NNE visible
02 Oct -2.1 19:49:03 10° WNW 19:51:55 26° N 19:54:47 10° NE visible
02 Oct -1.5 21:25:53 10° NW 21:27:32 23° NW 21:27:32 23° NW visible
03 Oct -2.5 20:33:55 10° NW 20:36:53 30° N 20:37:31 27° NNE visible
